Date String (YYYY-MM-DD hh:mm:ss) UTC,Instrument flags,absolute air pressure of the measurement (hPa),sample flow rate (lpm),inlet stack bypass flow (lpm),air temperature of the measurement (°C),ambient temperature measured by the external sensor (°C),aerosol sample conditioner tube jacket temperature (°C),OPC LED temperature (°C),internal box temperature (°C),relative humidity of the measurement (%),span deviation,mass concentration of particles derived from Lorenz-Mie calculation of OPC scattering (μg/m³),mass concentration of particles derived from Lorenz-Mie calculation of OPC scattering (μg/m³),mass concentration of particles derived from Lorenz-Mie calculation of OPC scattering (μg/m³)
DateTimeUTC,F1_M11,P_M11,Q1_M11,Q2_M11,T1_M11,T2_M11,T3_M11,T4_M11,T5_M11,U1_M11,ZSPAN_M11,X0_M11,X2_M11,X1_M11
2024-05-09 08:00:00,SystemResetWarning,0827.1,5.00,000.00,025.2,024.6,000.0,033.5,027.0,010.6,0000.0,0004.21,0000.74,0000.45
2024-05-09 08:01:00,SystemResetWarning,0827.1,5.00,000.00,025.2,024.6,000.0,033.5,026.9,010.4,0000.0,0003.72,0000.76,0000.45
2024-05-09 08:02:00,SystemResetWarning,0827.1,5.01,000.00,025.2,024.6,000.0,033.5,026.9,010.3,0000.0,0003.19,0000.75,0000.45
2024-05-09 08:03:00,SystemResetWarning,0827.1,5.01,000.00,025.2,024.6,000.0,033.5,026.9,010.3,0000.0,0002.13,0000.70,0000.44
2024-05-09 08:04:00,SystemResetWarning,0827.1,5.00,000.00,025.2,024.6,000.0,033.5,026.9,010.3,0000.0,0002.04,0000.66,0000.43
2024-05-09 08:05:00,SystemResetWarning,0827.1,4.99,000.00,025.2,024.6,000.0,033.5,027.0,010.3,0000.0,0002.02,0000.66,0000.42
2024-05-09 08:06:00,SystemResetWarning,0827.1,4.99,000.00,025.3,024.6,000.0,033.5,026.9,010.3,0000.0,0002.02,0000.68,0000.42
2024-05-09 08:07:00,SystemResetWarning,0827.1,5.01,000.00,025.3,024.6,000.0,033.5,027.0,010.3,0000.0,0002.04,0000.68,0000.42
2024-05-09 08:08:00,SystemResetWarning,0827.1,5.01,000.00,025.3,024.6,000.0,033.5,027.0,010.3,0000.0,0002.07,0000.67,0000.41
2024-05-09 08:09:00,SystemResetWarning,0827.2,5.00,000.00,025.3,024.6,000.0,033.5,026.9,010.3,0000.0,0001.95,0000.64,0000.39
2024-05-09 08:10:00,SystemResetWarning,0827.1,5.00,000.00,025.3,024.6,000.0,033.5,027.0,010.3,0000.0,0002.27,0000.63,0000.38
2024-05-09 08:11:00,SystemResetWarning,0827.2,5.00,000.00,025.3,024.6,000.0,033.5,027.0,010.4,0000.0,0002.28,0000.63,0000.37
2024-05-09 08:12:00,SystemResetWarning,0827.1,5.00,000.00,025.3,024.6,000.0,033.5,027.0,010.4,0000.0,0002.26,0000.66,0000.37
2024-05-09 08:13:00,SystemResetWarning,0827.2,4.99,000.00,025.3,024.6,000.0,033.5,027.0,010.3,0000.0,0001.74,0000.63,0000.37
2024-05-09 08:14:00,SystemResetWarning,0827.2,5.00,000.00,025.3,024.6,000.0,033.6,027.0,010.3,0000.0,0002.97,0000.68,0000.38
2024-05-09 08:15:00,SystemResetWarning,0827.2,5.02,000.00,025.3,024.6,000.0,033.5,027.0,010.3,0000.0,0003.75,0000.71,0000.38
2024-05-09 08:16:00,SystemResetWarning,0827.2,5.00,000.00,025.3,024.6,000.0,033.6,027.0,010.4,0000.0,0003.73,0000.70,0000.38
2024-05-09 08:17:00,SystemResetWarning,0827.2,4.99,000.00,025.3,024.6,000.0,033.6,027.0,010.5,0000.0,0003.76,0000.71,0000.38
2024-05-09 08:18:00,SystemResetWarning,0827.2,4.99,000.00,025.3,024.6,000.0,033.6,027.0,010.7,0000.0,0003.78,0000.72,0000.38
2024-05-09 08:19:00,SystemResetWarning,0827.2,5.00,000.00,025.3,024.6,000.0,033.6,027.0,010.8,0000.0,0003.65,0000.69,0000.39
2024-05-09 08:20:00,SystemResetWarning,0827.2,5.01,000.00,025.3,024.6,000.0,033.6,027.0,010.6,0000.0,0003.72,0000.69,0000.39
2024-05-09 08:21:00,SystemResetWarning,0827.2,5.00,000.00,025.3,024.6,000.0,033.6,027.0,010.7,0000.0,0003.67,0000.70,0000.40
2024-05-09 08:22:00,SystemResetWarning,0827.3,5.00,000.00,025.3,024.6,000.0,033.6,027.0,010.8,0000.0,0003.61,0000.72,0000.41
2024-05-09 08:23:00,SystemResetWarning,0827.2,4.99,000.00,025.3,024.6,000.0,033.6,027.0,010.8,0000.0,0003.85,0000.68,0000.42
2024-05-09 08:24:00,SystemResetWarning,0827.2,4.99,000.00,025.3,024.6,000.0,033.5,027.0,010.8,0000.0,0004.78,0000.67,0000.42
2024-05-09 08:25:00,SystemResetWarning,0827.2,5.01,000.00,025.3,024.6,000.0,033.6,027.0,010.8,0000.0,0005.17,0000.63,0000.41
2024-05-09 08:26:00,SystemResetWarning,0827.2,5.01,000.00,025.3,024.6,000.0,033.6,027.0,010.8,0000.0,0003.96,0000.59,0000.41
2024-05-09 08:27:00,SystemResetWarning,0827.2,4.99,000.00,025.3,024.6,000.0,033.6,027.0,010.8,0000.0,0003.93,0000.58,0000.41
2024-05-09 08:28:00,SystemResetWarning,0827.2,4.99,000.00,025.3,024.6,000.0,033.6,027.0,010.8,0000.0,0004.10,0000.62,0000.41
2024-05-09 08:29:00,SystemResetWarning,0827.2,5.00,000.00,025.3,024.6,000.0,033.6,027.0,010.8,0000.0,0004.22,0000.63,0000.41
2024-05-09 08:30:00,SystemResetWarning,0827.2,5.01,000.00,025.3,024.6,000.0,033.6,027.0,010.7,0000.0,0004.43,0000.67,0000.42
2024-05-09 08:31:00,SystemResetWarning,0827.2,4.99,000.00,025.3,024.6,000.0,033.6,027.0,010.7,0000.0,0004.56,0000.70,0000.42
2024-05-09 08:32:00,SystemResetWarning,0827.2,4.99,000.00,025.3,024.6,000.0,033.6,027.0,010.7,0000.0,0004.31,0000.71,0000.42
2024-05-09 08:33:00,SystemResetWarning,0827.1,5.00,000.00,025.3,024.6,000.0,033.6,027.0,010.7,0000.0,0004.35,0000.72,0000.41
2024-05-09 08:34:00,SystemResetWarning,0827.2,5.00,000.00,025.3,024.6,000.0,033.6,027.0,010.7,0000.0,0004.03,0000.74,0000.41
2024-05-09 08:35:00,SystemResetWarning,0827.1,4.99,000.00,025.3,024.6,000.0,033.6,027.0,010.8,0000.0,0003.01,0000.73,0000.40
2024-05-09 08:36:00,SystemResetWarning,0827.2,5.01,000.00,025.3,024.5,000.0,033.5,026.9,010.8,0000.0,0001.77,0000.73,0000.40
2024-05-09 08:37:00,SystemResetWarning,0827.2,5.00,000.00,025.2,024.5,000.0,033.5,026.9,010.8,0000.0,0001.82,0000.75,0000.40
2024-05-09 08:38:00,SystemResetWarning,0827.2,5.00,000.00,025.2,024.5,000.0,033.5,026.9,010.8,0000.0,0001.85,0000.74,0000.40
2024-05-09 08:39:00,SystemResetWarning,0827.3,5.00,000.00,025.2,024.5,000.0,033.5,026.9,010.7,0000.0,0002.01,0000.70,0000.39
2024-05-09 08:40:00,SystemResetWarning,0827.2,5.00,000.00,025.2,024.5,000.0,033.5,026.9,010.7,0000.0,0003.33,0000.67,0000.40
2024-05-09 08:41:00,SystemResetWarning,0827.2,5.00,000.00,025.2,024.5,000.0,033.5,026.9,010.6,0000.0,0003.65,0000.67,0000.39
2024-05-09 08:42:00,SystemResetWarning,0827.3,5.00,000.00,025.2,024.5,000.0,033.5,026.9,010.5,0000.0,0003.55,0000.69,0000.38
2024-05-09 08:43:00,SystemResetWarning,0827.3,5.00,000.00,025.2,024.5,000.0,033.5,026.9,010.5,0000.0,0003.97,0000.77,0000.39
2024-05-09 08:44:00,SystemResetWarning,0827.3,5.00,000.00,025.2,024.5,000.0,033.5,026.9,010.5,0000.0,0004.15,0000.76,0000.39
2024-05-09 08:45:00,SystemResetWarning,0827.3,5.00,000.00,025.2,024.5,000.0,033.5,026.9,010.5,0000.0,0004.23,0000.77,0000.39
2024-05-09 08:46:00,SystemResetWarning,0827.4,5.00,000.00,025.2,024.5,000.0,033.5,026.9,010.5,0000.0,0004.40,0000.83,0000.38
2024-05-09 08:47:00,SystemResetWarning,0827.4,5.00,000.00,025.2,024.5,000.0,033.5,026.8,010.6,0000.0,0004.50,0000.86,0000.38
2024-05-09 08:48:00,SystemResetWarning,0827.4,5.00,000.00,025.2,024.4,000.0,033.5,026.9,010.5,0000.0,0004.55,0000.89,0000.38
2024-05-09 08:49:00,SystemResetWarning,0827.4,5.00,000.00,025.2,024.4,000.0,033.5,026.9,010.6,0000.0,0004.67,0000.92,0000.39
2024-05-09 08:50:00,SystemResetWarning,0827.4,4.99,000.00,025.2,024.4,000.0,033.5,026.8,010.6,0000.0,0004.48,0000.94,0000.39
2024-05-09 08:51:00,SystemResetWarning,0827.4,5.01,000.00,025.2,024.4,000.0,033.5,026.8,010.6,0000.0,0003.48,0001.00,0000.38
2024-05-09 08:52:00,SystemResetWarning,0827.5,4.99,000.00,025.2,024.4,000.0,033.5,026.8,010.6,0000.0,0002.99,0001.04,0000.38
2024-05-09 08:53:00,SystemResetWarning,0827.6,5.01,000.00,025.2,024.4,000.0,033.5,026.8,010.5,0000.0,0003.02,0001.07,0000.38
2024-05-09 08:54:00,SystemResetWarning,0828.0,5.01,000.00,025.2,024.4,000.0,033.5,026.8,010.5,0000.0,0002.66,0000.97,0000.36
2024-05-09 08:55:00,SystemResetWarning,0827.7,5.01,000.00,025.1,024.4,000.0,033.5,026.8,010.6,0000.0,0002.29,0000.94,0000.36
2024-05-09 08:56:00,SystemResetWarning,0827.6,5.00,000.00,025.1,024.4,000.0,033.4,026.8,010.5,0000.0,0002.26,0000.95,0000.35
2024-05-09 08:57:00,SystemResetWarning,0827.5,5.00,000.00,025.1,024.5,000.0,033.5,026.9,010.5,0000.0,0002.28,0000.91,0000.35
2024-05-09 08:58:00,SystemResetWarning,0827.5,4.99,000.00,025.1,024.4,000.0,033.4,026.8,010.5,0000.0,0002.43,0000.93,0000.35
2024-05-09 08:59:00,SystemResetWarning,0827.5,5.00,000.00,025.1,024.4,000.0,033.4,026.8,010.5,0000.0,0002.46,0000.93,0000.34
